STARLINK-32528, 61724

Orbit data source: Space-Track

STARLINK-32528, 61724 is a payload satellite owned by SpaceX/Seattle (US) in LEO that was launched on Wed, 30 Oct 2024 UTC via an FALCON 9 launch vehicle from the Air Force Eastern Test Range (AFETR). Payloads include a variety of satellites, spacecraft, and rockets equipped with specific instruments for various scientific and technological missions. These include communications satellites like Starlink; space stations such as the ISS; scientific satellites like the Hubble; Earth observation satellites from companies like Planet Labs, Umbra, and HawkEye 360; GPS; miniature CubeSats for education and research; and military/defense satellites.

Loading next visibility...
STARLINK-32528 details
Identifier
61724, 2024-196T
Orbit
LEO
Last TLE update12 hours ago
Origin
Flag of USSpaceX/Seattle (US)
ManufacturerSpaceX/Seattle
MissionOperational spacecraft
Bus & MotorSTARLINK V2M, Unknown motor
Mass730 kg wet, ~700 kg dry
Launch date (UTC)
2024-10-30 (1 month ago)
Launch vehicle
FALCON 9
Launch site
Air Force Eastern Test Range (AFETR)
Object type
Payload
Rocket body
Debris
Shape & HBRUnknown
Radar Cross SectionLarge (>1 m²)

Expand to show TLE details & history

TLE from 12 hours ago
0 STARLINK-32528
1 61724U 24196T   24348.44496713  .00001601  00000-0  49991-4 0  9995
2 61724  53.1616  40.5514 0001142  93.0265 267.0870 15.39621931  7722
Epoch: 2024-12-13T10:40Z
Definitive object data (Epoch: 2024-12-13T10:40:45.16Z)
Latitude-0.00005°
Longitude157.75235°
Altitude448.17 km
Speed7.645 km/s
True Right ascension02h 42m 12s
True Declination0° 00' 00"
Sunlit
Object was in full shadow at TLE epoch
Visualization TLE readout
Latitude-52.92254°
Longitude75.02092°
Altitude466.39 km
Speed7.632 km/s
Apparent Right ascension09h 57m 58s
Apparent Declination-85° 19' 31"
Sunlit
Object is in daylight
Visualization observer readout
Local Sidereal Time21:18:38
Azimuth181.118° SSW
Elevation-44.517°
Doppler factor1
Orbital elements
Apogee altitude448.263 km
Perigee altitude446.704 km
Semi-major axis6,825.621 km
Eccentricity0.0001142
Inclination53.1616°
RAAN40.5514°
Arg. of periapsis93.0265°
True anomaly267.07393°
Mean anomaly267.087°
Eccentric anomaly267.08047°
Mean motion3.84884 °/min
BSTAR0.000049991
Orbital period93.53 mins
Loading maneuver chart data...
Loading historical data...
Loading historical data...
Loading historical data...
Loading historical data...
Loading historical data...
Loading historical data...
Loading historical data...

STARLINK-32528 Visibility forecast

Observer location: undefined°, undefined

Span
Click to sort rows by Start time (UTC) header in descending order
Start Az.
Max El. time (UTC)
Max El. Az.
Max El.
End time (UTC)
End Az.
5 mins2024-12-14 05:31:40.899Z184.956° SSW2024-12-14 05:34:40.899Z120.71° SE22.446°2024-12-14 05:36:40.899Z80.216° E
5 mins2024-12-14 07:09:40.899Z272.424° WNW2024-12-14 07:11:40.899Z334.967° NNW30.409°2024-12-14 07:14:40.899Z35.6° NE
5 mins2024-12-14 12:03:40.899Z331.496° NNW2024-12-14 12:06:40.899Z33.577° NE23.206°2024-12-14 12:08:40.899Z78.049° E
5 mins2024-12-14 13:41:40.899Z289.374° WNW2024-12-14 13:43:40.899Z237.362° WSW33.221°2024-12-14 13:46:40.899Z157.403° SSE
|